Погода Камень-на-Оби

Погода Камень-на-Оби : погода сейчас, прогноз погоды и архив. Всё, что Вы хотите узнать о погоде Камень-на-Оби!

Хотите узнать прогноз погоды Камень-на-Оби? Тогда Вам сюда: Погода Камень-на-Оби

Поиск расширенной информации на нашем сайте:

Другие новости

Новости СМИ2

Главная страница сайта

Новости сайта

03.07.2017

Напоминаем, что на нашем специализированном сайте Метеоцентр.Азия вы можете получить высокодетализированные автоматические прогнозы погоды по пунктам России, СНГ и мира в авиационном формате (включающие направление и скорость ветра, видимость, явления погоды, количество и форму облачности, нижнюю и верхнюю границу облачности).


Погода Камень-на-Оби - сегодня

Время (UTC), дата Ветер
(°,м/с) 
Видим.   Явления Облачность Т
(°С)
Тd
(°С)
f(%) Тe
(°С)
Pmin
(гПа)
dP
(гПа)
Po
(мм)
O2
(г/м3)
Тmin Tmax R s Состояние
почвы
06 15.04.18 250 (З) 10 км    1/1 600 м 
[Cu hum]
+5.7 -8.3 36 +4  1015.2  -1.1  749  297           
12 15.04.18 260 (З) 5{10}  10 км    3/3 600 м 
[Sc]
+7.8 -9 29 +6  1012.5  -1.4  747  294    +8.7       
15 15.04.18 210 (ЮЗ) 10 км    3/3 600 м 
[Sc]
+1.5 -5.7 59 +1  1012.3  -0.5  747  300           
18 15.04.18 210 (ЮЗ) 10 км    6/6 600 м 
[Sc]
+3.1 -5.4 54 +2  1011.4  -0.8  746  298           
21 15.04.18 220 (ЮЗ) 10 км    8/8 600 м 
[Sc]
+2.8 -5.4 55 +1  1009.9  -1.5  745  298           
00 16.04.18 220 (ЮЗ) 10 км    6/6 600 м 
[Sc]
+2.4 -5.6 55 1008.8  -1.1  745  298  +0.6         
12 16.04.18 230 (ЮЗ) 6-10{15}  10 км    9/9 600 м 
[Sc]
+11.5 -3.9 34 +10  1003.3  -0.8  741  287    +12.9       
15 16.04.18 250 (З) 6{11}  10 км    10/10 600 м 
[Sc]
+9.7 -2 44 +8  1004.5  1.1  742  289           
18 16.04.18 280 (З) 4{12}  10 км    3/3 600 м 
[Sc]
+3.8 -1.7 67 +2  1007.6  2.7  744  296           
00 17.04.18 230 (ЮЗ) 10 км    8/8 600 м 
[Sc]
-1 -3.6 82 -3  1011.2  0.9  746  302  -1.2         
12 17.04.18 300 (СЗ) 6-10{14}  10 км    4/4 600 м 
[Cu hum]
+2.9 -15.7 24 1016.8  1.8  750  300    +4.9  0.0     
15 17.04.18 310 (СЗ) 3{10}  10 км    3/0 
[Sc diur, vesp]
-2.8 -12 49 -5  1019.2  752  307           
18 17.04.18 270 (З) 10 км    ясно 
-6.2 -10.7 70 -8  1020.4  753  311           
21 17.04.18 270 (З) 10 км    3/0 верхняя 
[Ci fib]
-6 -10.8 69 -7  1021.4  753  311           
00 18.04.18 тихо ()   10 км    3/0 верхняя 
[Ci fib]
-7.8 -10.9 78 -8  1022.6  754  314  -8.7         
03 18.04.18 010 (С) 10 км    3/1 600 м верхняя 
[Cu hum|Cs]
-0.9 -12.5 41 -2  1023  0.9  755  306           
06 18.04.18 350 (С) 10 км    10/4 600 м верхняя 
[Cu med, cong|Cs]
+2.4 -14.2 28 1022.7  -0.1  755  303           
09 18.04.18 020 (С) 10 км    10/6 600 м верхняя 
[Cu med, cong|Cs]
+3 -14.7 26 +1  1022.1  -0.6  754  302           
12 18.04.18 360 (С) 10 км    10/4 600 м верхняя 
[Cu med, cong|Cs]
+2.8 -14.7 26 +1  1021.9  -0.2  754  302    +3.7       
15 18.04.18 220 (ЮЗ) 10 км    3/3 600 м 
[Sc]
-3.2 -11.8 51 -3  1023  0.8  755  309           
18 18.04.18 150 (ЮВ) 10 км    ясно 
-5.2 -11.1 63 -5  1023  -0.2  755  311           
21 18.04.18 140 (ЮВ) 10 км    3/0 верхняя 
[Ci fib]
-3.9 -8.7 69 -6  1022.2  -0.7  754  309           
00 19.04.18 140 (ЮВ) 10 км    9/0 верхняя 
[Cs]
-3.2 -9 64 -5  1021.1  -1  753  308  -6.1         
03 19.04.18 130 (ЮВ) 10 км    9/0 верхняя 
[Cs]
+2.2 -7.8 48 1020  -0.8  753  302           
09 19.04.18 120 (ЮВ) 5{11}  10 км    4/3 600 м верхняя 
[Cu hum|Cs]
+6.7 -12.2 24 +5  1016.5  -1.6  750  296           
Время (UTC), дата Ветер
(°,м/с) 
Видим.   Явления Облачность Т
(°С)
Тd
(°С)
f(%) Тe
(°С)
Pmin
(гПа)
dP
(гПа)
Po
(мм)
O2
(г/м3)
Тmin Tmax R s Состояние
почвы

Для получения пояснительной информации подведите курсор к названию столбца.

ПОГОДА Камень-на-Оби - архив

Всё, что Вы хотите узнать о погоде Камень-на-Оби - удобно и подробно!

Выберите нужную дату (начиная с 1 января 2015* года) и нажмите кнопку "Найти".
Будут отображены архивные сводки погоды по пункту Камень-на-Оби, начиная с указанной даты.


Отображать данные в формате CSV (для использования в таблицах Excel)


Внимание! Наш архив погоды предназначен исключительно для личного некоммерческого использования в познавательных целях. Если Вам необходимы официальные справки о состоянии погоды (для производственных, юридических, коммерческих и т.п. целей), обращайтесь в органы Росгидромета.

*Примечание: данная дата относится к архиву по метеостанциям СССР (Россия, СНГ, Балтия).
Архив по метеостанциям Зарубежной Европы и Азии (кроме Китая) хранится 10 дней, по другим регионам земного шара (Китай, Африка, Америка, Австралия, Океания) - 1 день.

Камень-на-Оби - район местоположения метеостанции


Название, широта, долгота, высота метеостанции:
Камень-на-Оби 53.8°ш. 81.3°д. 129 м над ур. моря [Российская Федерация]

Дополнительная информация

В oтличие oт бoльшинства пoгoдных сайтoв мы публикуем пoдрoбную метеoинфoрмацию в детальнoм прoфессиoнальнoм фoрмате.

Характеристики температуры и влажнoсти вoздуха измеряются на высoте 2 м в тени вдали oт зданий и деревьев.
Скoрoсть ветра измеряется на высoте 10 м (на урoвне рoста челoвека скoрoсть ветра ниже в 1.5-2 раза). Если метеoстанция нахoдится в гoрoде или в лесу, тo скoрoсть ветра занижена на 2-4 м/с пo сравнению с oткрытым местoм. Скoрoсть ветра над акватoриями крупных рек и oзёр, а также на вершинах хoлмoв на 2-5 м/с выше, чем в oбычных услoвиях.
Атмoсфернoе давление в разных тoчках местнoсти мoжет значительнo oтличаться oт давления на метеoстанции, в зависимoсти oт услoвий рельефа (при пoдъёме на 10 м давление пoнижается примернo на 1 мм рт.ст.).